Time,TemperatureF,DewpointF,PressureIn,WindDirection,WindDirectionDegrees,WindSpeedMPH,WindSpeedGustMPH,Humidity,HourlyPrecipIn,Conditions,Clouds,dailyrainin,SoftwareType,DateUTC
2013-01-31 00:02:00,53.5,-44.5,30.24,East,86,0.0,2.0,1,0.00,,,0.00,HR_IXPWINDi_r2_v1.2.,2013-01-31 08:02:00,
2013-01-31 00:08:00,53.6,0.0,30.24,East,86,1.0,3.0,0,0.00,,,0.00,HR_IXPWINDi_r2_v1.2.,2013-01-31 08:08:00,
2013-01-31 00:13:00,53.5,0.0,30.24,East,86,2.0,3.0,0,0.00,,,0.00,HR_IXPWINDi_r2_v1.2.,2013-01-31 08:13:00,
2013-01-31 00:18:00,53.3,0.0,30.24,East,86,0.0,3.0,0,0.00,,,0.00,HR_IXPWINDi_r2_v1.2.,2013-01-31 08:18:00,
2013-01-31 00:23:00,53.1,0.0,30.24,East,86,0.0,3.0,0,0.00,,,0.00,HR_IXPWINDi_r2_v1.2.,2013-01-31 08:23:00,
2013-01-31 00:28:00,53.1,0.0,30.24,East,86,0.0,2.0,0,0.00,,,0.00,HR_IXPWINDi_r2_v1.2.,2013-01-31 08:28:00,
2013-01-31 00:33:00,53.0,0.0,30.24,East,86,1.0,2.0,0,0.00,,,0.00,HR_IXPWINDi_r2_v1.2.,2013-01-31 08:33:00,
2013-01-31 00:39:00,52.8,0.0,30.23,East,86,1.0,2.0,0,0.00,,,0.00,HR_IXPWINDi_r2_v1.2.,2013-01-31 08:39:00,
2013-01-31 00:44:00,52.7,0.0,30.23,East,86,2.0,2.0,0,0.00,,,0.00,HR_IXPWINDi_r2_v1.2.,2013-01-31 08:44:00,
2013-01-31 00:49:00,52.9,0.0,30.23,East,86,2.0,2.0,0,0.00,,,0.00,HR_IXPWINDi_r2_v1.2.,2013-01-31 08:49:00,
2013-01-31 00:54:00,53.0,0.0,30.23,East,86,0.0,2.0,0,0.00,,,0.00,HR_IXPWINDi_r2_v1.2.,2013-01-31 08:54:00,
2013-01-31 00:59:00,53.1,0.0,30.23,East,86,3.0,3.0,0,0.00,,,0.00,HR_IXPWINDi_r2_v1.2.,2013-01-31 08:59:00,
2013-01-31 01:04:00,53.1,0.0,30.22,East,86,1.0,5.0,0,0.00,,,0.00,HR_IXPWINDi_r2_v1.2.,2013-01-31 09:04:00,
2013-01-31 01:10:00,53.2,0.0,30.23,East,86,2.0,5.0,0,0.00,,,0.00,HR_IXPWINDi_r2_v1.2.,2013-01-31 09:10:00,
2013-01-31 01:15:00,53.2,0.0,30.23,East,86,2.0,3.0,0,0.00,,,0.00,HR_IXPWINDi_r2_v1.2.,2013-01-31 09:15:00,
2013-01-31 01:20:00,53.2,0.0,30.23,East,86,5.0,5.0,0,0.00,,,0.00,HR_IXPWINDi_r2_v1.2.,2013-01-31 09:20:00,
2013-01-31 01:25:00,52.8,0.0,30.23,East,86,0.0,5.0,0,0.00,,,0.00,HR_IXPWINDi_r2_v1.2.,2013-01-31 09:25:00,
2013-01-31 01:30:00,52.6,0.0,30.22,East,86,0.0,5.0,0,0.00,,,0.00,HR_IXPWINDi_r2_v1.2.,2013-01-31 09:30:00,
2013-01-31 01:36:00,52.5,0.0,30.22,East,86,1.0,3.0,0,0.00,,,0.00,HR_IXPWINDi_r2_v1.2.,2013-01-31 09:36:00,
2013-01-31 01:41:00,52.6,0.0,30.22,East,86,0.0,3.0,0,0.00,,,0.00,HR_IXPWINDi_r2_v1.2.,2013-01-31 09:41:00,
2013-01-31 01:46:00,52.5,0.0,30.22,East,86,0.0,3.0,0,0.00,,,0.00,HR_IXPWINDi_r2_v1.2.,2013-01-31 09:46:00,
2013-01-31 01:51:00,52.2,0.0,30.21,East,86,0.0,2.0,0,0.00,,,0.00,HR_IXPWINDi_r2_v1.2.,2013-01-31 09:51:00,
2013-01-31 01:56:00,52.1,0.0,30.21,East,86,0.0,2.0,0,0.00,,,0.00,HR_IXPWINDi_r2_v1.2.,2013-01-31 09:56:00,
2013-01-31 02:02:00,51.9,0.0,30.21,East,86,0.0,2.0,0,0.00,,,0.00,HR_IXPWINDi_r2_v1.2.,2013-01-31 10:02:00,
2013-01-31 02:07:00,51.8,0.0,30.21,East,86,0.0,2.0,0,0.00,,,0.00,HR_IXPWINDi_r2_v1.2.,2013-01-31 10:07:00,
2013-01-31 02:12:00,52.1,0.0,30.21,East,86,3.0,3.0,0,0.00,,,0.00,HR_IXPWINDi_r2_v1.2.,2013-01-31 10:12:00,
2013-01-31 02:17:00,52.5,0.0,30.21,East,87,0.0,5.0,0,0.00,,,0.00,HR_IXPWINDi_r2_v1.2.,2013-01-31 10:17:00,
2013-01-31 02:22:00,52.4,0.0,30.20,East,86,1.0,5.0,0,0.00,,,0.00,HR_IXPWINDi_r2_v1.2.,2013-01-31 10:22:00,
2013-01-31 02:28:00,52.3,0.0,30.20,East,86,2.0,3.0,0,0.00,,,0.00,HR_IXPWINDi_r2_v1.2.,2013-01-31 10:28:00,
2013-01-31 02:33:00,51.9,0.0,30.20,East,86,1.0,3.0,0,0.00,,,0.00,HR_IXPWINDi_r2_v1.2.,2013-01-31 10:33:00,
2013-01-31 02:38:00,51.5,0.0,30.20,East,86,0.0,3.0,0,0.00,,,0.00,HR_IXPWINDi_r2_v1.2.,2013-01-31 10:38:00,
2013-01-31 02:43:00,51.3,0.0,30.20,East,86,2.0,3.0,0,0.00,,,0.00,HR_IXPWINDi_r2_v1.2.,2013-01-31 10:43:00,
2013-01-31 02:49:00,51.1,0.0,30.20,East,86,2.0,3.0,0,0.00,,,0.00,HR_IXPWINDi_r2_v1.2.,2013-01-31 10:49:00,
2013-01-31 02:54:00,51.1,0.0,30.20,East,86,2.0,3.0,0,0.00,,,0.00,HR_IXPWINDi_r2_v1.2.,2013-01-31 10:54:00,
2013-01-31 02:59:00,51.3,0.0,30.20,East,87,0.0,3.0,0,0.00,,,0.00,HR_IXPWINDi_r2_v1.2.,2013-01-31 10:59:00,
2013-01-31 03:04:00,51.4,0.0,30.19,East,86,0.0,3.0,0,0.00,,,0.00,HR_IXPWINDi_r2_v1.2.,2013-01-31 11:04:00,
2013-01-31 03:10:00,51.4,0.0,30.19,East,86,0.0,3.0,0,0.00,,,0.00,HR_IXPWINDi_r2_v1.2.,2013-01-31 11:10:00,
2013-01-31 03:15:00,51.6,0.0,30.19,East,86,0.0,2.0,0,0.00,,,0.00,HR_IXPWINDi_r2_v1.2.,2013-01-31 11:15:00,
2013-01-31 03:20:00,51.8,0.0,30.19,East,86,0.0,2.0,0,0.00,,,0.00,HR_IXPWINDi_r2_v1.2.,2013-01-31 11:20:00,
2013-01-31 03:25:00,51.9,0.0,30.19,East,86,0.0,1.0,0,0.00,,,0.00,HR_IXPWINDi_r2_v1.2.,2013-01-31 11:25:00,
2013-01-31 03:30:00,51.9,0.0,30.19,East,86,0.0,3.0,0,0.00,,,0.00,HR_IXPWINDi_r2_v1.2.,2013-01-31 11:30:00,
2013-01-31 03:36:00,51.7,0.0,30.19,East,86,1.0,3.0,0,0.00,,,0.00,HR_IXPWINDi_r2_v1.2.,2013-01-31 11:36:00,
2013-01-31 03:41:00,51.3,0.0,30.19,East,86,1.0,3.0,0,0.00,,,0.00,HR_IXPWINDi_r2_v1.2.,2013-01-31 11:41:00,
2013-01-31 03:46:00,51.3,0.0,30.19,East,87,0.0,2.0,0,0.00,,,0.00,HR_IXPWINDi_r2_v1.2.,2013-01-31 11:46:00,
2013-01-31 03:52:00,51.2,0.0,30.19,East,86,0.0,2.0,0,0.00,,,0.00,HR_IXPWINDi_r2_v1.2.,2013-01-31 11:52:00,
2013-01-31 03:57:00,51.0,0.0,30.18,East,86,0.0,2.0,0,0.00,,,0.00,HR_IXPWINDi_r2_v1.2.,2013-01-31 11:57:00,
2013-01-31 04:02:00,51.1,0.0,30.18,East,86,1.0,3.0,0,0.00,,,0.00,HR_IXPWINDi_r2_v1.2.,2013-01-31 12:02:00,
2013-01-31 04:07:00,51.3,0.0,30.18,East,86,1.0,3.0,0,0.00,,,0.00,HR_IXPWINDi_r2_v1.2.,2013-01-31 12:07:00,
2013-01-31 04:13:00,51.2,0.0,30.18,East,86,2.0,3.0,0,0.00,,,0.00,HR_IXPWINDi_r2_v1.2.,2013-01-31 12:13:00,
2013-01-31 04:18:00,50.9,0.0,30.18,East,86,1.0,5.0,0,0.00,,,0.00,HR_IXPWINDi_r2_v1.2.,2013-01-31 12:18:00,
2013-01-31 04:23:00,50.7,0.0,30.18,East,86,2.0,5.0,0,0.00,,,0.00,HR_IXPWINDi_r2_v1.2.,2013-01-31 12:23:00,
2013-01-31 04:28:00,50.4,0.0,30.18,East,86,2.0,5.0,0,0.00,,,0.00,HR_IXPWINDi_r2_v1.2.,2013-01-31 12:28:00,
2013-01-31 04:33:00,50.3,0.0,30.18,East,86,1.0,3.0,0,0.00,,,0.00,HR_IXPWINDi_r2_v1.2.,2013-01-31 12:33:00,
2013-01-31 04:39:00,50.1,0.0,30.18,East,86,0.0,3.0,0,0.00,,,0.00,HR_IXPWINDi_r2_v1.2.,2013-01-31 12:39:00,
2013-01-31 04:44:00,50.1,0.0,30.18,East,86,0.0,3.0,0,0.00,,,0.00,HR_IXPWINDi_r2_v1.2.,2013-01-31 12:44:00,
2013-01-31 04:49:00,50.1,0.0,30.18,East,86,1.0,3.0,0,0.00,,,0.00,HR_IXPWINDi_r2_v1.2.,2013-01-31 12:49:00,
2013-01-31 04:54:00,50.0,0.0,30.18,East,86,0.0,3.0,0,0.00,,,0.00,HR_IXPWINDi_r2_v1.2.,2013-01-31 12:54:00,
2013-01-31 04:59:00,50.0,0.0,30.18,East,86,1.0,3.0,0,0.00,,,0.00,HR_IXPWINDi_r2_v1.2.,2013-01-31 12:59:00,
2013-01-31 05:05:00,50.1,0.0,30.18,East,86,0.0,2.0,0,0.00,,,0.00,HR_IXPWINDi_r2_v1.2.,2013-01-31 13:05:00,
2013-01-31 05:10:00,50.3,0.0,30.18,East,86,0.0,3.0,0,0.00,,,0.00,HR_IXPWINDi_r2_v1.2.,2013-01-31 13:10:00,
2013-01-31 05:15:00,50.3,0.0,30.18,East,86,1.0,3.0,0,0.00,,,0.00,HR_IXPWINDi_r2_v1.2.,2013-01-31 13:15:00,
2013-01-31 05:20:00,50.0,0.0,30.18,East,86,0.0,2.0,0,0.00,,,0.00,HR_IXPWINDi_r2_v1.2.,2013-01-31 13:20:00,
2013-01-31 05:25:00,49.8,0.0,30.18,East,86,1.0,2.0,0,0.00,,,0.00,HR_IXPWINDi_r2_v1.2.,2013-01-31 13:25:00,
2013-01-31 05:31:00,49.6,0.0,30.18,East,86,1.0,3.0,0,0.00,,,0.00,HR_IXPWINDi_r2_v1.2.,2013-01-31 13:31:00,
2013-01-31 05:36:00,49.7,0.0,30.17,East,86,0.0,5.0,0,0.00,,,0.00,HR_IXPWINDi_r2_v1.2.,2013-01-31 13:36:00,
2013-01-31 05:41:00,49.7,0.0,30.18,East,87,1.0,5.0,0,0.00,,,0.00,HR_IXPWINDi_r2_v1.2.,2013-01-31 13:41:00,
2013-01-31 05:47:00,49.6,0.0,30.18,East,86,1.0,3.0,0,0.00,,,0.00,HR_IXPWINDi_r2_v1.2.,2013-01-31 13:47:00,
2013-01-31 05:52:00,49.7,0.0,30.18,East,86,3.0,3.0,0,0.00,,,0.00,HR_IXPWINDi_r2_v1.2.,2013-01-31 13:52:00,
2013-01-31 05:57:00,49.7,0.0,30.18,East,86,1.0,5.0,0,0.00,,,0.00,HR_IXPWINDi_r2_v1.2.,2013-01-31 13:57:00,
2013-01-31 06:02:00,49.5,0.0,30.18,East,86,1.0,5.0,0,0.00,,,0.00,HR_IXPWINDi_r2_v1.2.,2013-01-31 14:02:00,
2013-01-31 06:07:00,49.4,0.0,30.18,East,86,2.0,6.0,0,0.00,,,0.00,HR_IXPWINDi_r2_v1.2.,2013-01-31 14:07:00,
2013-01-31 06:13:00,49.4,0.0,30.18,East,86,3.0,6.0,0,0.00,,,0.00,HR_IXPWINDi_r2_v1.2.,2013-01-31 14:13:00,
2013-01-31 06:18:00,49.4,0.0,30.18,East,86,1.0,6.0,0,0.00,,,0.00,HR_IXPWINDi_r2_v1.2.,2013-01-31 14:18:00,
2013-01-31 06:23:00,49.4,0.0,30.18,East,86,3.0,6.0,0,0.00,,,0.00,HR_IXPWINDi_r2_v1.2.,2013-01-31 14:23:00,
2013-01-31 06:28:00,49.3,0.0,30.18,East,86,2.0,6.0,0,0.00,,,0.00,HR_IXPWINDi_r2_v1.2.,2013-01-31 14:28:00,
2013-01-31 06:33:00,49.2,0.0,30.19,East,86,2.0,5.0,0,0.00,,,0.00,HR_IXPWINDi_r2_v1.2.,2013-01-31 14:33:00,
2013-01-31 06:39:00,49.3,0.0,30.19,East,86,2.0,6.0,0,0.00,,,0.00,HR_IXPWINDi_r2_v1.2.,2013-01-31 14:39:00,
2013-01-31 06:44:00,49.4,0.0,30.19,East,86,1.0,6.0,0,0.00,,,0.00,HR_IXPWINDi_r2_v1.2.,2013-01-31 14:44:00,
2013-01-31 06:49:00,49.4,0.0,30.18,East,86,2.0,5.0,0,0.00,,,0.00,HR_IXPWINDi_r2_v1.2.,2013-01-31 14:49:00,
2013-01-31 06:54:00,49.6,0.0,30.19,ENE,71,4.0,7.0,0,0.00,,,0.00,HR_IXPWINDi_r2_v1.2.,2013-01-31 14:54:00,
2013-01-31 06:59:00,49.6,0.0,30.18,ENE,65,4.0,7.0,0,0.00,,,0.00,HR_IXPWINDi_r2_v1.2.,2013-01-31 14:59:00,
2013-01-31 07:04:00,49.9,0.0,30.19,ENE,65,2.0,7.0,0,0.00,,,0.00,HR_IXPWINDi_r2_v1.2.,2013-01-31 15:04:00,
2013-01-31 07:10:00,50.0,0.0,30.18,ENE,65,0.0,5.0,0,0.00,,,0.00,HR_IXPWINDi_r2_v1.2.,2013-01-31 15:10:00,
2013-01-31 07:15:00,50.1,0.0,30.19,NE,54,3.0,5.0,0,0.00,,,0.00,HR_IXPWINDi_r2_v1.2.,2013-01-31 15:15:00,
2013-01-31 07:20:00,50.2,0.0,30.19,NE,54,3.0,5.0,0,0.00,,,0.00,HR_IXPWINDi_r2_v1.2.,2013-01-31 15:20:00,
2013-01-31 07:25:00,50.0,0.0,30.19,NE,54,2.0,6.0,0,0.00,,,0.00,HR_IXPWINDi_r2_v1.2.,2013-01-31 15:25:00,
2013-01-31 07:30:00,49.9,0.0,30.19,NE,54,1.0,6.0,0,0.00,,,0.00,HR_IXPWINDi_r2_v1.2.,2013-01-31 15:30:00,
2013-01-31 07:35:00,49.8,0.0,30.19,NE,54,1.0,4.0,0,0.00,,,0.00,HR_IXPWINDi_r2_v1.2.,2013-01-31 15:35:00,
2013-01-31 07:41:00,50.4,0.0,30.19,NE,54,1.0,4.0,0,0.00,,,0.00,HR_IXPWINDi_r2_v1.2.,2013-01-31 15:41:00,
2013-01-31 07:46:00,50.7,0.0,30.19,NE,54,0.0,4.0,0,0.00,,,0.00,HR_IXPWINDi_r2_v1.2.,2013-01-31 15:46:00,
2013-01-31 07:51:00,51.0,0.0,30.19,NE,54,0.0,4.0,0,0.00,,,0.00,HR_IXPWINDi_r2_v1.2.,2013-01-31 15:51:00,
2013-01-31 07:56:00,51.6,0.0,30.20,NE,54,2.0,4.0,0,0.00,,,0.00,HR_IXPWINDi_r2_v1.2.,2013-01-31 15:56:00,
2013-01-31 08:01:00,52.0,0.0,30.20,NE,54,0.0,3.0,0,0.00,,,0.00,HR_IXPWINDi_r2_v1.2.,2013-01-31 16:01:00,
2013-01-31 08:07:00,52.1,0.0,30.20,NE,54,2.0,3.0,0,0.00,,,0.00,HR_IXPWINDi_r2_v1.2.,2013-01-31 16:07:00,
2013-01-31 08:12:00,52.3,0.0,30.20,NE,54,2.0,3.0,0,0.00,,,0.00,HR_IXPWINDi_r2_v1.2.,2013-01-31 16:12:00,
2013-01-31 08:17:00,52.7,0.0,30.20,NE,54,1.0,3.0,0,0.00,,,0.00,HR_IXPWINDi_r2_v1.2.,2013-01-31 16:17:00,
2013-01-31 08:22:00,53.1,0.0,30.20,NE,54,1.0,3.0,0,0.00,,,0.00,HR_IXPWINDi_r2_v1.2.,2013-01-31 16:22:00,
2013-01-31 08:27:00,53.5,0.0,30.21,NE,54,1.0,3.0,0,0.00,,,0.00,HR_IXPWINDi_r2_v1.2.,2013-01-31 16:27:00,
2013-01-31 08:32:00,53.7,0.0,30.21,NE,54,1.0,3.0,0,0.00,,,0.00,HR_IXPWINDi_r2_v1.2.,2013-01-31 16:32:00,
2013-01-31 08:38:00,54.2,0.0,30.21,NE,54,3.0,3.0,0,0.00,,,0.00,HR_IXPWINDi_r2_v1.2.,2013-01-31 16:38:00,
2013-01-31 08:43:00,54.2,0.0,30.21,NE,54,0.0,3.0,0,0.00,,,0.00,HR_IXPWINDi_r2_v1.2.,2013-01-31 16:43:00,
2013-01-31 08:48:00,54.4,0.0,30.21,NE,54,1.0,3.0,0,0.00,,,0.00,HR_IXPWINDi_r2_v1.2.,2013-01-31 16:48:00,
2013-01-31 08:53:00,54.7,0.0,30.21,NE,54,1.0,2.0,0,0.00,,,0.00,HR_IXPWINDi_r2_v1.2.,2013-01-31 16:53:00,
2013-01-31 08:58:00,55.0,0.0,30.21,NE,54,1.0,2.0,0,0.00,,,0.00,HR_IXPWINDi_r2_v1.2.,2013-01-31 16:58:00,
2013-01-31 09:03:00,55.7,0.0,30.21,NE,54,0.0,2.0,0,0.00,,,0.00,HR_IXPWINDi_r2_v1.2.,2013-01-31 17:03:00,
2013-01-31 09:08:00,56.0,0.0,30.22,NE,54,0.0,1.0,0,0.00,,,0.00,HR_IXPWINDi_r2_v1.2.,2013-01-31 17:08:00,
2013-01-31 09:14:00,56.2,-42.9,30.21,NE,54,0.0,1.0,1,0.00,,,0.00,HR_IXPWINDi_r2_v1.2.,2013-01-31 17:14:00,
2013-01-31 09:19:00,56.6,-6.5,30.22,NE,54,0.0,1.0,7,0.00,,,0.00,HR_IXPWINDi_r2_v1.2.,2013-01-31 17:19:00,
2013-01-31 09:24:00,57.4,-3.2,30.22,NE,54,1.0,2.0,8,0.00,,,0.00,HR_IXPWINDi_r2_v1.2.,2013-01-31 17:24:00,
2013-01-31 09:29:00,57.2,12.8,30.22,NE,54,3.0,3.0,17,0.00,,,0.00,HR_IXPWINDi_r2_v1.2.,2013-01-31 17:29:00,
2013-01-31 09:34:00,57.8,13.3,30.22,NE,54,2.0,4.0,17,0.00,,,0.00,HR_IXPWINDi_r2_v1.2.,2013-01-31 17:34:00,
2013-01-31 09:39:00,57.7,16.9,30.22,NE,54,0.0,4.0,20,0.00,,,0.00,HR_IXPWINDi_r2_v1.2.,2013-01-31 17:39:00,
2013-01-31 09:45:00,58.1,23.4,30.22,NNW,329,1.0,7.0,26,0.00,,,0.00,HR_IXPWINDi_r2_v1.2.,2013-01-31 17:45:00,
2013-01-31 09:50:00,58.7,25.7,30.22,NNW,329,1.0,7.0,28,0.00,,,0.00,HR_IXPWINDi_r2_v1.2.,2013-01-31 17:50:00,
2013-01-31 09:55:00,58.8,26.6,30.22,NNW,329,5.0,5.0,29,0.00,,,0.00,HR_IXPWINDi_r2_v1.2.,2013-01-31 17:55:00,
2013-01-31 10:00:00,59.2,20.4,30.21,NNW,329,3.0,5.0,22,0.00,,,0.00,HR_IXPWINDi_r2_v1.2.,2013-01-31 18:00:00,
2013-01-31 10:05:00,59.6,16.1,30.21,NNW,328,2.0,5.0,18,0.00,,,0.00,HR_IXPWINDi_r2_v1.2.,2013-01-31 18:05:00,
2013-01-31 10:10:00,59.1,10.0,30.21,NW,304,4.0,7.0,14,0.00,,,0.00,HR_IXPWINDi_r2_v1.2.,2013-01-31 18:10:00,
2013-01-31 10:16:00,59.3,11.7,30.20,NW,306,4.0,7.0,15,0.00,,,0.00,HR_IXPWINDi_r2_v1.2.,2013-01-31 18:16:00,
2013-01-31 10:21:00,59.6,14.8,30.20,NW,304,6.0,6.0,17,0.00,,,0.00,HR_IXPWINDi_r2_v1.2.,2013-01-31 18:21:00,
2013-01-31 10:26:00,59.9,12.2,30.20,WNW,302,6.0,7.0,15,0.00,,,0.00,HR_IXPWINDi_r2_v1.2.,2013-01-31 18:26:00,
2013-01-31 10:31:00,59.8,13.5,30.20,WNW,298,5.0,7.0,16,0.00,,,0.00,HR_IXPWINDi_r2_v1.2.,2013-01-31 18:31:00,
2013-01-31 10:36:00,60.4,18.0,30.20,WNW,298,2.0,7.0,19,0.00,,,0.00,HR_IXPWINDi_r2_v1.2.,2013-01-31 18:36:00,
2013-01-31 10:41:00,61.3,14.7,30.20,WNW,298,3.0,7.0,16,0.00,,,0.00,HR_IXPWINDi_r2_v1.2.,2013-01-31 18:41:00,
2013-01-31 10:47:00,61.8,26.5,30.20,WNW,296,2.0,5.0,26,0.00,,,0.00,HR_IXPWINDi_r2_v1.2.,2013-01-31 18:47:00,
2013-01-31 10:52:00,62.2,30.4,30.20,WNW,293,0.0,5.0,30,0.00,,,0.00,HR_IXPWINDi_r2_v1.2.,2013-01-31 18:52:00,
2013-01-31 10:57:00,62.3,31.3,30.20,WNW,292,4.0,5.0,31,0.00,,,0.00,HR_IXPWINDi_r2_v1.2.,2013-01-31 18:57:00,
2013-01-31 11:02:00,62.1,28.6,30.19,WNW,289,4.0,6.0,28,0.00,,,0.00,HR_IXPWINDi_r2_v1.2.,2013-01-31 19:02:00,
2013-01-31 11:07:00,61.9,22.6,30.19,West,274,2.0,7.0,22,0.00,,,0.00,HR_IXPWINDi_r2_v1.2.,2013-01-31 19:07:00,
2013-01-31 11:12:00,61.6,8.5,30.19,West,270,4.0,7.0,12,0.00,,,0.00,HR_IXPWINDi_r2_v1.2.,2013-01-31 19:12:00,
2013-01-31 11:18:00,61.5,2.2,30.18,West,266,4.0,10.0,9,0.00,,,0.00,HR_IXPWINDi_r2_v1.2.,2013-01-31 19:18:00,
2013-01-31 11:23:00,61.0,-0.5,30.18,West,279,7.0,11.0,8,0.00,,,0.00,HR_IXPWINDi_r2_v1.2.,2013-01-31 19:23:00,
2013-01-31 11:28:00,60.9,-6.5,30.18,West,280,6.0,11.0,6,0.00,,,0.00,HR_IXPWINDi_r2_v1.2.,2013-01-31 19:28:00,
2013-01-31 11:33:00,60.8,-14.7,30.18,WNW,294,10.0,12.0,4,0.00,,,0.00,HR_IXPWINDi_r2_v1.2.,2013-01-31 19:33:00,
2013-01-31 11:38:00,60.8,0.0,30.17,NW,318,6.0,14.0,0,0.00,,,0.00,HR_IXPWINDi_r2_v1.2.,2013-01-31 19:38:00,
2013-01-31 11:43:00,60.8,0.0,30.17,WNW,293,4.0,14.0,0,0.00,,,0.00,HR_IXPWINDi_r2_v1.2.,2013-01-31 19:43:00,
2013-01-31 11:48:00,61.0,0.0,30.17,WNW,289,6.0,10.0,0,0.00,,,0.00,HR_IXPWINDi_r2_v1.2.,2013-01-31 19:48:00,
2013-01-31 11:54:00,61.1,0.0,30.16,WNW,285,6.0,11.0,0,0.00,,,0.00,HR_IXPWINDi_r2_v1.2.,2013-01-31 19:54:00,
2013-01-31 11:59:00,61.1,0.0,30.16,WNW,288,7.0,11.0,0,0.00,,,0.00,HR_IXPWINDi_r2_v1.2.,2013-01-31 19:59:00,
2013-01-31 12:04:00,61.4,0.0,30.15,West,281,5.0,11.0,0,0.00,,,0.00,HR_IXPWINDi_r2_v1.2.,2013-01-31 20:04:00,
2013-01-31 12:09:00,61.2,0.0,30.15,WNW,285,9.0,13.0,0,0.00,,,0.00,HR_IXPWINDi_r2_v1.2.,2013-01-31 20:09:00,
2013-01-31 12:14:00,61.3,0.0,30.15,WNW,290,8.0,13.0,0,0.00,,,0.00,HR_IXPWINDi_r2_v1.2.,2013-01-31 20:14:00,
2013-01-31 12:19:00,61.6,0.0,30.15,WNW,293,8.0,13.0,0,0.00,,,0.00,HR_IXPWINDi_r2_v1.2.,2013-01-31 20:19:00,
2013-01-31 12:25:00,61.8,0.0,30.14,NW,305,5.0,13.0,0,0.00,,,0.00,HR_IXPWINDi_r2_v1.2.,2013-01-31 20:25:00,
2013-01-31 12:30:00,62.2,0.0,30.14,WNW,291,8.0,13.0,0,0.00,,,0.00,HR_IXPWINDi_r2_v1.2.,2013-01-31 20:30:00,
2013-01-31 12:35:00,62.0,0.0,30.13,WNW,299,12.0,14.0,0,0.00,,,0.00,HR_IXPWINDi_r2_v1.2.,2013-01-31 20:35:00,
2013-01-31 12:40:00,62.2,0.0,30.13,WNW,290,8.0,14.0,0,0.00,,,0.00,HR_IXPWINDi_r2_v1.2.,2013-01-31 20:40:00,
2013-01-31 12:45:00,62.5,5.2,30.13,WNW,303,9.0,13.0,10,0.00,,,0.00,HR_IXPWINDi_r2_v1.2.,2013-01-31 20:45:00,
2013-01-31 12:50:00,63.5,25.0,30.13,WNW,292,11.0,13.0,23,0.00,,,0.00,HR_IXPWINDi_r2_v1.2.,2013-01-31 20:50:00,
2013-01-31 12:56:00,63.8,32.6,30.13,WNW,301,7.0,13.0,31,0.00,,,0.00,HR_IXPWINDi_r2_v1.2.,2013-01-31 20:56:00,
2013-01-31 13:01:00,64.0,36.5,30.12,NW,313,9.0,13.0,36,0.00,,,0.00,HR_IXPWINDi_r2_v1.2.,2013-01-31 21:01:00,
2013-01-31 13:06:00,64.0,35.8,30.12,NW,310,5.0,13.0,35,0.00,,,0.00,HR_IXPWINDi_r2_v1.2.,2013-01-31 21:06:00,
2013-01-31 13:11:00,64.0,36.5,30.12,WNW,296,7.0,12.0,36,0.00,,,0.00,HR_IXPWINDi_r2_v1.2.,2013-01-31 21:11:00,
2013-01-31 13:16:00,63.8,34.9,30.12,NW,308,6.0,12.0,34,0.00,,,0.00,HR_IXPWINDi_r2_v1.2.,2013-01-31 21:16:00,
2013-01-31 13:22:00,64.3,37.4,30.11,NW,313,11.0,13.0,37,0.00,,,0.00,HR_IXPWINDi_r2_v1.2.,2013-01-31 21:22:00,
2013-01-31 13:27:00,64.6,38.4,30.11,NW,304,5.0,14.0,38,0.00,,,0.00,HR_IXPWINDi_r2_v1.2.,2013-01-31 21:27:00,
2013-01-31 13:32:00,64.9,37.3,30.11,NW,310,7.0,14.0,36,0.00,,,0.00,HR_IXPWINDi_r2_v1.2.,2013-01-31 21:32:00,
2013-01-31 13:37:00,65.2,38.2,30.10,NW,312,7.0,14.0,37,0.00,,,0.00,HR_IXPWINDi_r2_v1.2.,2013-01-31 21:37:00,
2013-01-31 13:43:00,64.9,36.6,30.10,NW,305,10.0,13.0,35,0.00,,,0.00,HR_IXPWINDi_r2_v1.2.,2013-01-31 21:43:00,
2013-01-31 13:48:00,64.9,37.3,30.10,WNW,298,7.0,13.0,36,0.00,,,0.00,HR_IXPWINDi_r2_v1.2.,2013-01-31 21:48:00,
2013-01-31 13:53:00,64.8,39.2,30.10,NW,317,8.0,12.0,39,0.00,,,0.00,HR_IXPWINDi_r2_v1.2.,2013-01-31 21:53:00,
2013-01-31 13:58:00,65.0,39.4,30.10,NW,317,8.0,13.0,39,0.00,,,0.00,HR_IXPWINDi_r2_v1.2.,2013-01-31 21:58:00,
2013-01-31 14:03:00,64.9,39.3,30.10,NW,309,8.0,14.0,39,0.00,,,0.00,HR_IXPWINDi_r2_v1.2.,2013-01-31 22:03:00,
2013-01-31 14:08:00,65.1,40.8,30.10,NW,314,11.0,14.0,41,0.00,,,0.00,HR_IXPWINDi_r2_v1.2.,2013-01-31 22:08:00,
2013-01-31 14:14:00,65.1,40.8,30.10,WNW,296,10.0,15.0,41,0.00,,,0.00,HR_IXPWINDi_r2_v1.2.,2013-01-31 22:14:00,
2013-01-31 14:19:00,65.3,40.3,30.10,NW,307,9.0,15.0,40,0.00,,,0.00,HR_IXPWINDi_r2_v1.2.,2013-01-31 22:19:00,
2013-01-31 14:24:00,65.4,41.1,30.10,WNW,300,6.0,15.0,41,0.00,,,0.00,HR_IXPWINDi_r2_v1.2.,2013-01-31 22:24:00,
2013-01-31 14:29:00,65.4,42.3,30.09,NW,315,5.0,15.0,43,0.00,,,0.00,HR_IXPWINDi_r2_v1.2.,2013-01-31 22:29:00,
2013-01-31 14:35:00,65.4,41.1,30.09,WNW,302,9.0,14.0,41,0.00,,,0.00,HR_IXPWINDi_r2_v1.2.,2013-01-31 22:35:00,
2013-01-31 14:40:00,65.2,42.1,30.09,NW,313,13.0,14.0,43,0.00,,,0.00,HR_IXPWINDi_r2_v1.2.,2013-01-31 22:40:00,
2013-01-31 14:45:00,65.2,40.2,30.09,NW,304,12.0,15.0,40,0.00,,,0.00,HR_IXPWINDi_r2_v1.2.,2013-01-31 22:45:00,
2013-01-31 14:50:00,64.8,36.5,30.09,NW,317,9.0,15.0,35,0.00,,,0.00,HR_IXPWINDi_r2_v1.2.,2013-01-31 22:50:00,
2013-01-31 14:55:00,64.4,33.1,30.09,NW,307,9.0,14.0,31,0.00,,,0.00,HR_IXPWINDi_r2_v1.2.,2013-01-31 22:55:00,
2013-01-31 15:00:00,64.3,36.0,30.09,NW,317,10.0,14.0,35,0.00,,,0.00,HR_IXPWINDi_r2_v1.2.,2013-01-31 23:00:00,
2013-01-31 15:06:00,64.1,33.6,30.09,WNW,292,10.0,14.0,32,0.00,,,0.00,HR_IXPWINDi_r2_v1.2.,2013-01-31 23:06:00,
2013-01-31 15:11:00,63.9,30.1,30.09,NW,307,7.0,15.0,28,0.00,,,0.00,HR_IXPWINDi_r2_v1.2.,2013-01-31 23:11:00,
2013-01-31 15:16:00,63.8,30.1,30.09,NW,319,5.0,15.0,28,0.00,,,0.00,HR_IXPWINDi_r2_v1.2.,2013-01-31 23:16:00,
2013-01-31 15:21:00,63.5,10.0,30.10,WNW,288,7.0,14.0,12,0.00,,,0.00,HR_IXPWINDi_r2_v1.2.,2013-01-31 23:21:00,
2013-01-31 15:27:00,62.7,-38.9,30.10,NW,304,9.0,14.0,1,0.00,,,0.00,HR_IXPWINDi_r2_v1.2.,2013-01-31 23:27:00,
2013-01-31 15:32:00,62.2,0.0,30.11,WNW,290,8.0,14.0,0,0.00,,,0.00,HR_IXPWINDi_r2_v1.2.,2013-01-31 23:32:00,
2013-01-31 15:37:00,62.0,0.0,30.10,WNW,295,8.0,14.0,0,0.00,,,0.00,HR_IXPWINDi_r2_v1.2.,2013-01-31 23:37:00,
2013-01-31 15:42:00,61.7,0.0,30.11,WNW,293,9.0,14.0,0,0.00,,,0.00,HR_IXPWINDi_r2_v1.2.,2013-01-31 23:42:00,
2013-01-31 15:47:00,61.8,0.0,30.11,NW,305,7.0,14.0,0,0.00,,,0.00,HR_IXPWINDi_r2_v1.2.,2013-01-31 23:47:00,
2013-01-31 15:53:00,61.7,0.0,30.11,WNW,286,6.0,12.0,0,0.00,,,0.00,HR_IXPWINDi_r2_v1.2.,2013-01-31 23:53:00,
2013-01-31 15:58:00,61.8,0.0,30.11,NW,319,4.0,12.0,0,0.00,,,0.00,HR_IXPWINDi_r2_v1.2.,2013-01-31 23:58:00,
2013-01-31 16:03:00,61.9,0.0,30.11,WNW,295,8.0,9.0,0,0.00,,,0.00,HR_IXPWINDi_r2_v1.2.,2013-02-01 00:03:00,
2013-01-31 16:08:00,61.7,0.0,30.11,WNW,299,8.0,10.0,0,0.00,,,0.00,HR_IXPWINDi_r2_v1.2.,2013-02-01 00:08:00,
2013-01-31 16:13:00,61.6,0.0,30.11,WNW,300,7.0,10.0,0,0.00,,,0.00,HR_IXPWINDi_r2_v1.2.,2013-02-01 00:13:00,
2013-01-31 16:19:00,61.6,0.0,30.11,WNW,301,6.0,10.0,0,0.00,,,0.00,HR_IXPWINDi_r2_v1.2.,2013-02-01 00:19:00,
2013-01-31 16:24:00,61.7,0.0,30.11,WNW,300,9.0,10.0,0,0.00,,,0.00,HR_IXPWINDi_r2_v1.2.,2013-02-01 00:24:00,
2013-01-31 16:29:00,61.6,0.0,30.11,WNW,300,5.0,9.0,0,0.00,,,0.00,HR_IXPWINDi_r2_v1.2.,2013-02-01 00:29:00,
2013-01-31 16:34:00,61.7,0.0,30.11,WNW,290,6.0,9.0,0,0.00,,,0.00,HR_IXPWINDi_r2_v1.2.,2013-02-01 00:34:00,
2013-01-31 16:39:00,61.5,0.0,30.11,NW,305,8.0,9.0,0,0.00,,,0.00,HR_IXPWINDi_r2_v1.2.,2013-02-01 00:39:00,
2013-01-31 16:44:00,61.5,0.0,30.11,West,277,6.0,9.0,0,0.00,,,0.00,HR_IXPWINDi_r2_v1.2.,2013-02-01 00:44:00,
2013-01-31 16:49:00,61.6,0.0,30.11,West,281,6.0,9.0,0,0.00,,,0.00,HR_IXPWINDi_r2_v1.2.,2013-02-01 00:49:00,
2013-01-31 16:54:00,61.3,0.0,30.11,West,281,3.0,8.0,0,0.00,,,0.00,HR_IXPWINDi_r2_v1.2.,2013-02-01 00:54:00,
2013-01-31 16:59:00,60.9,0.0,30.11,WNW,300,6.0,9.0,0,0.00,,,0.00,HR_IXPWINDi_r2_v1.2.,2013-02-01 00:59:00,
2013-01-31 17:04:00,60.6,0.0,30.11,West,281,6.0,9.0,0,0.00,,,0.00,HR_IXPWINDi_r2_v1.2.,2013-02-01 01:04:00,
2013-01-31 17:09:00,60.5,0.0,30.11,WNW,301,2.0,9.0,0,0.00,,,0.00,HR_IXPWINDi_r2_v1.2.,2013-02-01 01:09:00,
2013-01-31 17:15:00,60.3,0.0,30.11,WNW,302,4.0,8.0,0,0.00,,,0.00,HR_IXPWINDi_r2_v1.2.,2013-02-01 01:15:00,
2013-01-31 17:20:00,60.2,0.0,30.11,NW,306,3.0,6.0,0,0.00,,,0.00,HR_IXPWINDi_r2_v1.2.,2013-02-01 01:20:00,
2013-01-31 17:25:00,60.1,0.0,30.11,NW,306,0.0,5.0,0,0.00,,,0.00,HR_IXPWINDi_r2_v1.2.,2013-02-01 01:25:00,
2013-01-31 17:30:00,60.1,0.0,30.11,NW,306,3.0,5.0,0,0.00,,,0.00,HR_IXPWINDi_r2_v1.2.,2013-02-01 01:30:00,
2013-01-31 17:35:00,60.2,0.0,30.11,NW,312,4.0,6.0,0,0.00,,,0.00,HR_IXPWINDi_r2_v1.2.,2013-02-01 01:35:00,
2013-01-31 17:41:00,60.2,0.0,30.11,NW,317,2.0,6.0,0,0.00,,,0.00,HR_IXPWINDi_r2_v1.2.,2013-02-01 01:41:00,
2013-01-31 17:46:00,60.4,0.0,30.11,NW,316,3.0,6.0,0,0.00,,,0.00,HR_IXPWINDi_r2_v1.2.,2013-02-01 01:46:00,
2013-01-31 17:51:00,60.4,0.0,30.11,NW,317,0.0,4.0,0,0.00,,,0.00,HR_IXPWINDi_r2_v1.2.,2013-02-01 01:51:00,
2013-01-31 17:56:00,60.3,0.0,30.11,NW,317,3.0,4.0,0,0.00,,,0.00,HR_IXPWINDi_r2_v1.2.,2013-02-01 01:56:00,
2013-01-31 18:01:00,60.1,0.0,30.11,East,89,1.0,6.0,0,0.00,,,0.00,HR_IXPWINDi_r2_v1.2.,2013-02-01 02:01:00,
2013-01-31 18:06:00,59.8,0.0,30.11,East,89,2.0,6.0,0,0.00,,,0.00,HR_IXPWINDi_r2_v1.2.,2013-02-01 02:06:00,
2013-01-31 18:12:00,60.0,0.0,30.11,East,89,1.0,3.0,0,0.00,,,0.00,HR_IXPWINDi_r2_v1.2.,2013-02-01 02:12:00,
2013-01-31 18:17:00,59.7,0.0,30.11,East,89,2.0,3.0,0,0.00,,,0.00,HR_IXPWINDi_r2_v1.2.,2013-02-01 02:17:00,
2013-01-31 18:22:00,59.8,0.0,30.12,East,89,0.0,3.0,0,0.00,,,0.00,HR_IXPWINDi_r2_v1.2.,2013-02-01 02:22:00,
2013-01-31 18:27:00,59.7,0.0,30.12,East,89,2.0,3.0,0,0.00,,,0.00,HR_IXPWINDi_r2_v1.2.,2013-02-01 02:27:00,
2013-01-31 18:32:00,59.6,0.0,30.12,East,90,2.0,5.0,0,0.00,,,0.00,HR_IXPWINDi_r2_v1.2.,2013-02-01 02:32:00,
2013-01-31 18:37:00,59.2,0.0,30.12,East,90,0.0,5.0,0,0.00,,,0.00,HR_IXPWINDi_r2_v1.2.,2013-02-01 02:37:00,
2013-01-31 18:43:00,58.9,0.0,30.12,East,90,0.0,2.0,0,0.00,,,0.00,HR_IXPWINDi_r2_v1.2.,2013-02-01 02:43:00,
2013-01-31 18:48:00,58.7,0.0,30.12,East,90,0.0,2.0,0,0.00,,,0.00,HR_IXPWINDi_r2_v1.2.,2013-02-01 02:48:00,
2013-01-31 18:53:00,58.7,0.0,30.12,East,90,0.0,1.0,0,0.00,,,0.00,HR_IXPWINDi_r2_v1.2.,2013-02-01 02:53:00,
2013-01-31 18:58:00,58.9,0.0,30.12,East,90,0.0,0.0,0,0.00,,,0.00,HR_IXPWINDi_r2_v1.2.,2013-02-01 02:58:00,
2013-01-31 19:03:00,58.9,0.0,30.12,East,90,0.0,0.0,0,0.00,,,0.00,HR_IXPWINDi_r2_v1.2.,2013-02-01 03:03:00,
2013-01-31 19:08:00,58.7,0.0,30.12,East,90,0.0,0.0,0,0.00,,,0.00,HR_IXPWINDi_r2_v1.2.,2013-02-01 03:08:00,
2013-01-31 19:14:00,58.7,0.0,30.12,East,90,0.0,0.0,0,0.00,,,0.00,HR_IXPWINDi_r2_v1.2.,2013-02-01 03:14:00,
2013-01-31 19:19:00,58.7,0.0,30.12,East,90,0.0,0.0,0,0.00,,,0.00,HR_IXPWINDi_r2_v1.2.,2013-02-01 03:19:00,
2013-01-31 19:24:00,58.6,0.0,30.12,East,90,0.0,1.0,0,0.00,,,0.00,HR_IXPWINDi_r2_v1.2.,2013-02-01 03:24:00,
2013-01-31 19:29:00,58.6,0.0,30.12,East,90,0.0,1.0,0,0.00,,,0.00,HR_IXPWINDi_r2_v1.2.,2013-02-01 03:29:00,
2013-01-31 19:34:00,58.6,0.0,30.12,East,90,0.0,1.0,0,0.00,,,0.00,HR_IXPWINDi_r2_v1.2.,2013-02-01 03:34:00,
2013-01-31 19:39:00,58.5,0.0,30.13,East,90,2.0,2.0,0,0.00,,,0.00,HR_IXPWINDi_r2_v1.2.,2013-02-01 03:39:00,
2013-01-31 19:45:00,58.4,0.0,30.13,East,90,1.0,2.0,0,0.00,,,0.00,HR_IXPWINDi_r2_v1.2.,2013-02-01 03:45:00,
2013-01-31 19:50:00,58.5,0.0,30.13,East,90,3.0,3.0,0,0.00,,,0.00,HR_IXPWINDi_r2_v1.2.,2013-02-01 03:50:00,
2013-01-31 19:55:00,58.4,0.0,30.13,East,90,1.0,3.0,0,0.00,,,0.00,HR_IXPWINDi_r2_v1.2.,2013-02-01 03:55:00,
2013-01-31 20:00:00,58.4,0.0,30.13,East,90,0.0,3.0,0,0.00,,,0.00,HR_IXPWINDi_r2_v1.2.,2013-02-01 04:00:00,
2013-01-31 20:05:00,58.6,0.0,30.13,East,90,0.0,2.0,0,0.00,,,0.00,HR_IXPWINDi_r2_v1.2.,2013-02-01 04:05:00,
2013-01-31 20:11:00,58.3,0.0,30.13,East,90,0.0,0.0,0,0.00,,,0.00,HR_IXPWINDi_r2_v1.2.,2013-02-01 04:11:00,
2013-01-31 20:16:00,58.2,0.0,30.14,East,90,0.0,0.0,0,0.00,,,0.00,HR_IXPWINDi_r2_v1.2.,2013-02-01 04:16:00,
2013-01-31 20:21:00,58.2,0.0,30.13,East,90,0.0,0.0,0,0.00,,,0.00,HR_IXPWINDi_r2_v1.2.,2013-02-01 04:21:00,
2013-01-31 20:26:00,58.3,0.0,30.14,East,90,0.0,0.0,0,0.00,,,0.00,HR_IXPWINDi_r2_v1.2.,2013-02-01 04:26:00,
2013-01-31 20:31:00,58.6,0.0,30.14,East,90,0.0,0.0,0,0.00,,,0.00,HR_IXPWINDi_r2_v1.2.,2013-02-01 04:31:00,
2013-01-31 20:37:00,58.2,0.0,30.14,East,90,2.0,2.0,0,0.00,,,0.00,HR_IXPWINDi_r2_v1.2.,2013-02-01 04:37:00,
2013-01-31 20:42:00,57.7,0.0,30.13,East,90,0.0,3.0,0,0.00,,,0.00,HR_IXPWINDi_r2_v1.2.,2013-02-01 04:42:00,
2013-01-31 20:47:00,57.9,0.0,30.13,East,90,0.0,3.0,0,0.00,,,0.00,HR_IXPWINDi_r2_v1.2.,2013-02-01 04:47:00,
2013-01-31 20:52:00,58.4,0.0,30.13,East,90,0.0,2.0,0,0.00,,,0.00,HR_IXPWINDi_r2_v1.2.,2013-02-01 04:52:00,
2013-01-31 20:58:00,58.4,0.0,30.13,East,90,1.0,3.0,0,0.00,,,0.00,HR_IXPWINDi_r2_v1.2.,2013-02-01 04:58:00,
2013-01-31 21:00:00,58.4,0.0,30.13,East,90,1.0,3.0,0,0.00,,,0.00,HR_IXPWINDi_r2_v1.2.,2013-02-01 05:00:00,
2013-01-31 21:05:00,58.1,0.0,30.13,East,90,2.0,3.0,0,0.00,,,0.00,HR_IXPWINDi_r2_v1.2.,2013-02-01 05:05:00,
2013-01-31 21:11:00,57.6,0.0,30.13,East,90,3.0,5.0,0,0.00,,,0.00,HR_IXPWINDi_r2_v1.2.,2013-02-01 05:11:00,
2013-01-31 21:16:00,57.2,0.0,30.13,East,90,0.0,5.0,0,0.00,,,0.00,HR_IXPWINDi_r2_v1.2.,2013-02-01 05:16:00,
2013-01-31 21:21:00,57.1,0.0,30.13,East,90,2.0,3.0,0,0.00,,,0.00,HR_IXPWINDi_r2_v1.2.,2013-02-01 05:21:00,
2013-01-31 21:27:00,56.9,0.0,30.13,East,90,1.0,5.0,0,0.00,,,0.00,HR_IXPWINDi_r2_v1.2.,2013-02-01 05:27:00,
2013-01-31 21:32:00,56.8,0.0,30.13,East,90,3.0,5.0,0,0.00,,,0.00,HR_IXPWINDi_r2_v1.2.,2013-02-01 05:32:00,
2013-01-31 21:37:00,56.8,0.0,30.13,East,90,0.0,3.0,0,0.00,,,0.00,HR_IXPWINDi_r2_v1.2.,2013-02-01 05:37:00,
2013-01-31 21:42:00,56.7,0.0,30.13,East,90,0.0,3.0,0,0.00,,,0.00,HR_IXPWINDi_r2_v1.2.,2013-02-01 05:42:00,
2013-01-31 21:47:00,56.5,0.0,30.13,East,90,0.0,3.0,0,0.00,,,0.00,HR_IXPWINDi_r2_v1.2.,2013-02-01 05:47:00,
2013-01-31 21:53:00,56.4,0.0,30.13,East,90,0.0,2.0,0,0.00,,,0.00,HR_IXPWINDi_r2_v1.2.,2013-02-01 05:53:00,
2013-01-31 21:58:00,56.3,0.0,30.13,East,90,2.0,2.0,0,0.00,,,0.00,HR_IXPWINDi_r2_v1.2.,2013-02-01 05:58:00,
2013-01-31 22:03:00,56.2,0.0,30.13,East,90,0.0,2.0,0,0.00,,,0.00,HR_IXPWINDi_r2_v1.2.,2013-02-01 06:03:00,
2013-01-31 22:08:00,56.2,0.0,30.12,East,90,1.0,2.0,0,0.00,,,0.00,HR_IXPWINDi_r2_v1.2.,2013-02-01 06:08:00,
2013-01-31 22:13:00,56.3,0.0,30.12,East,90,0.0,2.0,0,0.00,,,0.00,HR_IXPWINDi_r2_v1.2.,2013-02-01 06:13:00,
2013-01-31 22:19:00,56.3,0.0,30.12,East,90,0.0,2.0,0,0.00,,,0.00,HR_IXPWINDi_r2_v1.2.,2013-02-01 06:19:00,
2013-01-31 22:24:00,56.3,0.0,30.12,East,90,0.0,3.0,0,0.00,,,0.00,HR_IXPWINDi_r2_v1.2.,2013-02-01 06:24:00,
2013-01-31 22:29:00,56.3,0.0,30.12,East,90,1.0,3.0,0,0.00,,,0.00,HR_IXPWINDi_r2_v1.2.,2013-02-01 06:29:00,
2013-01-31 22:34:00,56.4,0.0,30.12,East,90,1.0,2.0,0,0.00,,,0.00,HR_IXPWINDi_r2_v1.2.,2013-02-01 06:34:00,
2013-01-31 22:39:00,56.6,0.0,30.12,East,90,2.0,2.0,0,0.00,,,0.00,HR_IXPWINDi_r2_v1.2.,2013-02-01 06:39:00,
2013-01-31 22:44:00,56.1,0.0,30.12,East,90,1.0,3.0,0,0.00,,,0.00,HR_IXPWINDi_r2_v1.2.,2013-02-01 06:44:00,
2013-01-31 22:50:00,56.0,0.0,30.12,East,90,2.0,3.0,0,0.00,,,0.00,HR_IXPWINDi_r2_v1.2.,2013-02-01 06:50:00,
2013-01-31 22:55:00,55.9,0.0,30.12,East,90,2.0,3.0,0,0.00,,,0.00,HR_IXPWINDi_r2_v1.2.,2013-02-01 06:55:00,
2013-01-31 23:00:00,55.8,0.0,30.12,East,90,1.0,3.0,0,0.00,,,0.00,HR_IXPWINDi_r2_v1.2.,2013-02-01 07:00:00,
2013-01-31 23:05:00,55.8,0.0,30.12,East,90,2.0,3.0,0,0.00,,,0.00,HR_IXPWINDi_r2_v1.2.,2013-02-01 07:05:00,
2013-01-31 23:10:00,55.8,0.0,30.12,East,90,6.0,6.0,0,0.00,,,0.00,HR_IXPWINDi_r2_v1.2.,2013-02-01 07:10:00,
2013-01-31 23:16:00,55.6,0.0,30.12,East,90,2.0,6.0,0,0.00,,,0.00,HR_IXPWINDi_r2_v1.2.,2013-02-01 07:16:00,
2013-01-31 23:21:00,55.7,0.0,30.12,East,90,3.0,6.0,0,0.00,,,0.00,HR_IXPWINDi_r2_v1.2.,2013-02-01 07:21:00,
2013-01-31 23:26:00,55.6,0.0,30.13,East,90,1.0,5.0,0,0.00,,,0.00,HR_IXPWINDi_r2_v1.2.,2013-02-01 07:26:00,
2013-01-31 23:31:00,55.7,0.0,30.13,East,90,3.0,5.0,0,0.00,,,0.00,HR_IXPWINDi_r2_v1.2.,2013-02-01 07:31:00,
2013-01-31 23:36:00,55.9,0.0,30.13,East,90,0.0,5.0,0,0.00,,,0.00,HR_IXPWINDi_r2_v1.2.,2013-02-01 07:36:00,
2013-01-31 23:42:00,56.2,0.0,30.13,East,90,0.0,5.0,0,0.00,,,0.00,HR_IXPWINDi_r2_v1.2.,2013-02-01 07:42:00,
2013-01-31 23:47:00,56.0,0.0,30.13,East,90,2.0,3.0,0,0.00,,,0.00,HR_IXPWINDi_r2_v1.2.,2013-02-01 07:47:00,
2013-01-31 23:52:00,55.5,0.0,30.13,East,90,0.0,2.0,0,0.00,,,0.00,HR_IXPWINDi_r2_v1.2.,2013-02-01 07:52:00,
2013-01-31 23:57:00,55.3,0.0,30.13,East,90,0.0,2.0,0,0.00,,,0.00,HR_IXPWINDi_r2_v1.2.,2013-02-01 07:57:00,